THY9CP LTFM-EDDM

Flight info

Callsign THY9CP
Flight time N/A
Altitude 38000
Route VADEN1G/17R VADEN L615 RAVAK L863 VAL N131 ZAG L603 PODET VALLU KFT 4700N01400E LATLO
Aircraft B38M/M-VGDW/C

Departure

Time 2026-02-20 11:23
Airport İstanbul Airport (LTFM)

Arrival

Time N/A
Airport Munich Airport (EDDM)
Time Latitude Longitude Altitude Speed Heading
2026-02-20 10:46 41.26699 28.73755 306 ft 0 kts 270°
2026-02-20 11:04 41.26700 28.73769 307 ft 2 kts 268°
2026-02-20 11:04 41.26699 28.73791 306 ft 2 kts 271°
2026-02-20 11:05 41.26699 28.73806 306 ft 2 kts 272°
2026-02-20 11:05 41.26698 28.73835 304 ft 2 kts 275°
2026-02-20 11:05 41.26695 28.73857 305 ft 2 kts 285°
2026-02-20 11:05 41.26691 28.73870 306 ft 2 kts 315°
2026-02-20 11:06 41.26678 28.73876 307 ft 0 kts 360°
2026-02-20 11:09 41.26682 28.73876 306 ft 2 kts 360°
2026-02-20 11:10 41.26728 28.73876 307 ft 12 kts 360°
2026-02-20 11:10 41.26824 28.73866 307 ft 12 kts 338°
2026-02-20 11:10 41.26848 28.73801 309 ft 9 kts 272°
2026-02-20 11:10 41.26849 28.73713 306 ft 10 kts 270°
2026-02-20 11:11 41.26850 28.73604 308 ft 13 kts 270°
2026-02-20 11:11 41.26849 28.73465 308 ft 17 kts 269°
2026-02-20 11:11 41.26849 28.73295 309 ft 20 kts 271°
2026-02-20 11:11 41.26849 28.73104 309 ft 16 kts 269°
2026-02-20 11:12 41.26876 28.72991 306 ft 13 kts 336°
2026-02-20 11:12 41.26970 28.72984 307 ft 14 kts 359°
2026-02-20 11:12 41.27076 28.72981 308 ft 16 kts 359°
2026-02-20 11:12 41.27192 28.72979 308 ft 17 kts 359°
2026-02-20 11:13 41.27318 28.72977 307 ft 19 kts 359°
2026-02-20 11:13 41.27454 28.72974 308 ft 20 kts 359°
2026-02-20 11:13 41.27600 28.72970 308 ft 22 kts 359°
2026-02-20 11:13 41.27754 28.72964 308 ft 23 kts 359°
2026-02-20 11:14 41.27918 28.72960 306 ft 24 kts 360°
2026-02-20 11:14 41.28090 28.72960 306 ft 25 kts 360°
2026-02-20 11:14 41.28272 28.72957 308 ft 27 kts 358°
2026-02-20 11:14 41.28460 28.72949 308 ft 28 kts 358°
2026-02-20 11:15 41.28656 28.72949 307 ft 29 kts 359°
2026-02-20 11:15 41.28849 28.72946 308 ft 26 kts
2026-02-20 11:15 41.29036 28.72943 308 ft 27 kts 359°
2026-02-20 11:15 41.29228 28.72940 308 ft 28 kts 359°
2026-02-20 11:16 41.29421 28.72935 308 ft 26 kts 359°
2026-02-20 11:16 41.29585 28.72933 307 ft 16 kts 359°
2026-02-20 11:16 41.29693 28.72930 307 ft 15 kts 359°
2026-02-20 11:16 41.29737 28.72930 308 ft 1 kts 359°
2026-02-20 11:17 41.29740 28.72930 308 ft 0 kts 359°
2026-02-20 11:17 41.29746 28.72930 307 ft 2 kts 359°
2026-02-20 11:17 41.29776 28.72929 308 ft 6 kts 359°
2026-02-20 11:17 41.29832 28.72929 307 ft 10 kts 359°
2026-02-20 11:18 41.29869 28.72901 307 ft 0 kts 275°
2026-02-20 11:18 41.29870 28.72895 307 ft 2 kts 275°
2026-02-20 11:18 41.29871 28.72852 307 ft 7 kts 269°
2026-02-20 11:19 41.29870 28.72745 308 ft 17 kts 269°
2026-02-20 11:19 41.29869 28.72582 308 ft 10 kts 270°
2026-02-20 11:19 41.29869 28.72571 310 ft 0 kts 270°
2026-02-20 11:20 41.29869 28.72569 310 ft 2 kts 270°
2026-02-20 11:20 41.29869 28.72501 310 ft 12 kts 267°
2026-02-20 11:20 41.29828 28.72455 308 ft 0 kts 178°
2026-02-20 11:22 41.29822 28.72455 307 ft 4 kts 178°
2026-02-20 11:22 41.29671 28.72457 308 ft 54 kts 180°
2026-02-20 11:22 41.29043 28.72470 308 ft 126 kts 179°
2026-02-20 11:22 41.28009 28.72536 601 ft 160 kts 181°
2026-02-20 11:23 41.26898 28.72598 1503 ft 161 kts 179°
2026-02-20 11:23 41.25750 28.72627 2367 ft 173 kts 183°
2026-02-20 11:23 41.24465 28.72657 2923 ft 194 kts 180°
2026-02-20 11:23 41.23013 28.72737 3375 ft 221 kts 183°
2026-02-20 11:24 41.21403 28.72789 3993 ft 240 kts 185°
2026-02-20 11:24 41.19755 28.72245 4538 ft 253 kts 215°
2026-02-20 11:24 41.18610 28.70549 5559 ft 246 kts 245°
2026-02-20 11:24 41.18206 28.68348 6534 ft 250 kts 266°
2026-02-20 11:25 41.18150 28.66007 7349 ft 255 kts 268°
2026-02-20 11:25 41.18103 28.63668 8228 ft 259 kts 268°
2026-02-20 11:25 41.18061 28.61226 9106 ft 263 kts 269°
2026-02-20 11:25 41.18354 28.58825 9985 ft 267 kts 292°
2026-02-20 11:26 41.19428 28.56826 10713 ft 279 kts 315°
2026-02-20 11:26 41.21176 28.55504 11140 ft 305 kts 340°
2026-02-20 11:26 41.23360 28.55251 11618 ft 326 kts 357°
2026-02-20 11:26 41.25665 28.55253 12110 ft 338 kts 355°
2026-02-20 11:27 41.28038 28.55216 12893 ft 340 kts 354°
2026-02-20 11:27 41.30418 28.55179 13672 ft 345 kts 356°
2026-02-20 11:27 41.32836 28.55513 14341 ft 351 kts
2026-02-20 11:27 41.35294 28.55899 15012 ft 355 kts
2026-02-20 11:28 41.37760 28.56265 15692 ft 358 kts
2026-02-20 11:28 41.40253 28.56622 16374 ft 362 kts
2026-02-20 11:28 41.42772 28.56975 17032 ft 365 kts
2026-02-20 11:28 41.45273 28.57041 17649 ft 364 kts 352°
2026-02-20 11:29 41.47830 28.56953 18276 ft 369 kts 353°
2026-02-20 11:29 41.50406 28.56891 18840 ft 372 kts 353°
2026-02-20 11:29 41.53000 28.56844 19387 ft 375 kts 353°
2026-02-20 11:29 41.55621 28.56805 19919 ft 378 kts 353°
2026-02-20 11:30 41.58263 28.56768 20457 ft 380 kts 353°
2026-02-20 11:30 41.60922 28.56734 20997 ft 383 kts 353°
2026-02-20 11:30 41.63598 28.56699 21515 ft 386 kts 353°
2026-02-20 11:30 41.66299 28.56665 22023 ft 389 kts 353°
2026-02-20 11:31 41.68998 28.56467 22518 ft 386 kts 343°
2026-02-20 11:31 41.71500 28.55326 22973 ft 377 kts 326°
2026-02-20 11:31 41.73576 28.53243 23366 ft 372 kts 309°
2026-02-20 11:31 41.75086 28.50466 23785 ft 368 kts 294°
2026-02-20 11:32 41.75994 28.47274 24172 ft 367 kts 282°
2026-02-20 11:32 41.76469 28.43951 24572 ft 369 kts 278°
2026-02-20 11:32 41.77089 28.37385 25358 ft 372 kts 275°
2026-02-20 11:33 41.77327 28.33923 25774 ft 373 kts 274°
2026-02-20 11:33 41.77541 28.30445 26178 ft 375 kts 274°
2026-02-20 11:33 41.77742 28.26946 26562 ft 377 kts 273°
2026-02-20 11:33 41.77934 28.23427 26952 ft 379 kts 273°
2026-02-20 11:34 41.78331 28.19935 27341 ft 383 kts 285°
2026-02-20 11:34 41.79486 28.16688 27756 ft 388 kts 296°
2026-02-20 11:34 41.80821 28.13575 28064 ft 391 kts 296°
2026-02-20 11:34 41.82192 28.10413 28408 ft 394 kts 296°
2026-02-20 11:35 41.83585 28.07242 28774 ft 395 kts 296°
2026-02-20 11:35 41.84971 28.04043 29104 ft 396 kts 292°
2026-02-20 11:35 41.85801 28.00561 29414 ft 390 kts 275°
2026-02-20 11:35 41.86011 27.96922 29695 ft 392 kts 272°
2026-02-20 11:36 41.86184 27.93257 29996 ft 394 kts 272°
2026-02-20 11:36 41.86333 27.89569 30306 ft 396 kts 271°
2026-02-20 11:36 41.86466 27.85870 30570 ft 398 kts 271°
2026-02-20 11:36 41.86587 27.82199 30845 ft 399 kts 271°
2026-02-20 11:37 41.86705 27.78474 31145 ft 400 kts 271°
2026-02-20 11:37 41.86821 27.74748 31539 ft 398 kts 271°
2026-02-20 11:37 41.86934 27.71040 31944 ft 397 kts 271°
2026-02-20 11:38 41.87038 27.67585 32302 ft 395 kts 271°
2026-02-20 11:38 41.87148 27.63897 32682 ft 394 kts 270°
2026-02-20 11:39 41.87256 27.60239 33081 ft 392 kts 270°
2026-02-20 11:39 41.87363 27.56590 33475 ft 390 kts 270°
2026-02-20 11:39 41.87509 27.52955 33837 ft 390 kts 276°
2026-02-20 11:39 41.88255 27.49452 34154 ft 395 kts 291°
2026-02-20 11:40 41.89746 27.46303 34424 ft 404 kts 304°
2026-02-20 11:40 41.91588 27.43435 34605 ft 407 kts 305°
2026-02-20 11:40 41.93481 27.40585 34809 ft 409 kts 306°
2026-02-20 11:40 41.95409 27.37744 35028 ft 410 kts 306°
2026-02-20 11:41 41.97309 27.34976 35263 ft 410 kts 306°
2026-02-20 11:41 41.99251 27.32165 35506 ft 410 kts 306°
2026-02-20 11:41 42.01198 27.29353 35727 ft 410 kts 306°
2026-02-20 11:41 42.03147 27.26537 35909 ft 411 kts 306°
2026-02-20 11:42 42.05092 27.23722 36103 ft 411 kts 305°
2026-02-20 11:42 42.06694 27.20615 36302 ft 398 kts 290°
2026-02-20 11:42 42.07830 27.17230 36525 ft 397 kts 289°
2026-02-20 11:43 42.10085 27.10407 36831 ft 398 kts 289°
2026-02-20 11:43 42.11187 27.06977 37004 ft 398 kts 288°
2026-02-20 11:43 42.12278 27.03541 37180 ft 399 kts 288°
2026-02-20 11:43 42.13351 27.00145 37342 ft 399 kts 288°
2026-02-20 11:44 42.14438 26.96701 37512 ft 399 kts 288°
2026-02-20 11:44 42.15524 26.93250 37693 ft 399 kts 288°
2026-02-20 11:44 42.16608 26.89804 37862 ft 399 kts 288°
2026-02-20 11:44 42.17695 26.86340 38012 ft 399 kts 288°
2026-02-20 11:45 42.18775 26.82896 38027 ft 400 kts 288°
2026-02-20 11:45 42.20935 26.75995 38026 ft 399 kts 288°
2026-02-20 11:46 42.23094 26.69077 38029 ft 399 kts 288°
2026-02-20 11:46 42.25236 26.62195 38019 ft 400 kts 287°
2026-02-20 11:47 42.27388 26.55266 38018 ft 400 kts 287°
2026-02-20 11:47 42.29537 26.48326 38010 ft 400 kts 287°
2026-02-20 11:48 42.31683 26.41379 38013 ft 401 kts 287°
2026-02-20 11:48 42.33824 26.34428 38017 ft 401 kts 287°
2026-02-20 11:49 42.35966 26.27454 38021 ft 401 kts 287°
2026-02-20 11:49 42.38091 26.20518 38012 ft 402 kts 287°
2026-02-20 11:50 42.40230 26.13520 38013 ft 402 kts 287°
2026-02-20 11:50 42.42364 26.06519 38015 ft 402 kts 286°
2026-02-20 11:51 42.44497 25.99505 38015 ft 403 kts 286°
2026-02-20 11:51 42.46623 25.92488 38014 ft 403 kts 286°
2026-02-20 11:52 42.48747 25.85464 38014 ft 403 kts 286°
2026-02-20 11:52 42.50854 25.78476 38007 ft 403 kts 286°
2026-02-20 11:53 42.52980 25.71407 38013 ft 403 kts 286°
2026-02-20 11:53 42.55095 25.64355 38005 ft 404 kts 285°
2026-02-20 11:54 42.57214 25.57272 38008 ft 405 kts 285°
2026-02-20 11:54 42.59315 25.50226 38003 ft 405 kts 285°
2026-02-20 11:55 42.61427 25.43129 38006 ft 406 kts 285°
2026-02-20 11:55 42.63545 25.35989 38000 ft 410 kts 284°
2026-02-20 11:56 42.65683 25.28761 37996 ft 412 kts 284°
2026-02-20 11:56 42.67817 25.21524 37991 ft 413 kts 284°
2026-02-20 11:57 42.69954 25.14257 37944 ft 413 kts 284°
2026-02-20 11:57 42.72074 25.07031 37980 ft 414 kts 284°
2026-02-20 11:58 42.74204 24.99749 37962 ft 415 kts 284°
2026-02-20 11:58 42.76336 24.92438 37963 ft 415 kts 284°
2026-02-20 11:59 42.78462 24.85128 37968 ft 415 kts 284°
2026-02-20 11:59 42.80586 24.77803 37956 ft 415 kts 284°
2026-02-20 12:00 42.82693 24.70516 37955 ft 416 kts 284°
2026-02-20 12:00 42.84809 24.63176 37950 ft 416 kts 284°
2026-02-20 12:01 42.86924 24.55819 37945 ft 416 kts 284°
2026-02-20 12:01 42.89032 24.48463 37938 ft 416 kts 284°
2026-02-20 12:02 42.91139 24.41089 37946 ft 417 kts 284°
2026-02-20 12:02 42.93236 24.33730 37940 ft 418 kts 284°
2026-02-20 12:03 42.95342 24.26321 37949 ft 419 kts 284°
2026-02-20 12:03 42.97446 24.18892 37939 ft 420 kts 284°
2026-02-20 12:04 42.99546 24.11457 37966 ft 420 kts 284°
2026-02-20 12:04 43.01635 24.04036 37947 ft 421 kts 284°
2026-02-20 12:05 43.03748 23.96512 37944 ft 422 kts 284°
2026-02-20 12:05 43.05837 23.89048 37942 ft 423 kts 284°
2026-02-20 12:06 43.07941 23.81510 37940 ft 424 kts 284°
2026-02-20 12:06 43.10050 23.73927 37944 ft 426 kts 284°
2026-02-20 12:07 43.12145 23.66381 37950 ft 427 kts 284°
2026-02-20 12:07 43.14255 23.58757 37933 ft 428 kts 284°
2026-02-20 12:08 43.16366 23.51110 37939 ft 430 kts 285°
2026-02-20 12:08 43.18481 23.43427 37945 ft 431 kts 285°
2026-02-20 12:09 43.20593 23.35726 37949 ft 431 kts 285°
2026-02-20 12:09 43.22773 23.28082 37943 ft 433 kts 286°
2026-02-20 12:10 43.24993 23.20381 37944 ft 434 kts 286°
2026-02-20 12:10 43.27213 23.12655 37949 ft 436 kts 286°
2026-02-20 12:11 43.29058 23.06214 37949 ft 436 kts 286°
2026-02-20 12:11 43.31641 22.97172 37945 ft 438 kts 286°
2026-02-20 12:12 43.33500 22.90642 37948 ft 438 kts 286°
2026-02-20 12:12 43.35706 22.82873 37938 ft 439 kts 286°
2026-02-20 12:13 43.37918 22.75037 37952 ft 440 kts 286°
2026-02-20 12:13 43.40120 22.67180 37923 ft 439 kts 286°
2026-02-20 12:14 43.42316 22.59323 37941 ft 440 kts 286°
2026-02-20 12:14 43.44510 22.51446 37941 ft 441 kts 286°
2026-02-20 12:15 43.46700 22.43561 37941 ft 441 kts 286°
2026-02-20 12:15 43.48887 22.35658 37930 ft 440 kts 286°
2026-02-20 12:16 43.51051 22.27809 37942 ft 441 kts 286°
2026-02-20 12:16 43.53227 22.19895 37941 ft 441 kts 286°
2026-02-20 12:17 43.55397 22.11977 37940 ft 441 kts 286°
2026-02-20 12:17 43.57562 22.04047 37937 ft 442 kts 286°
2026-02-20 12:18 43.59727 21.96095 37930 ft 442 kts 286°
2026-02-20 12:18 43.61880 21.88162 37926 ft 442 kts 286°
2026-02-20 12:19 43.64017 21.80258 37925 ft 442 kts 286°
2026-02-20 12:19 43.66164 21.72296 37929 ft 442 kts 286°
2026-02-20 12:20 43.68306 21.64331 37914 ft 442 kts 287°
2026-02-20 12:20 43.71022 21.56635 37902 ft 446 kts 293°
2026-02-20 12:21 43.73850 21.49037 37897 ft 446 kts 293°
2026-02-20 12:21 43.76694 21.41402 37890 ft 446 kts 293°
2026-02-20 12:22 43.79531 21.33764 37887 ft 446 kts 293°
2026-02-20 12:22 43.82362 21.26122 37881 ft 445 kts 293°
2026-02-20 12:23 43.85182 21.18488 37878 ft 445 kts 293°
2026-02-20 12:23 43.87997 21.10848 37864 ft 445 kts 293°
2026-02-20 12:24 43.90813 21.03185 37866 ft 445 kts 293°
2026-02-20 12:24 43.93621 20.95520 37857 ft 445 kts 293°
2026-02-20 12:25 43.96404 20.87903 37859 ft 445 kts 293°
2026-02-20 12:25 43.99219 20.80177 37859 ft 445 kts 293°
2026-02-20 12:26 44.01992 20.72547 37866 ft 445 kts 293°
2026-02-20 12:26 44.04780 20.64853 37862 ft 445 kts 293°
2026-02-20 12:27 44.07565 20.57145 37858 ft 445 kts 293°
2026-02-20 12:27 44.10339 20.49447 37855 ft 445 kts 294°
2026-02-20 12:28 44.13092 20.41784 37852 ft 445 kts 294°
2026-02-20 12:28 44.15860 20.34059 37863 ft 446 kts 294°
2026-02-20 12:29 44.18623 20.26327 37855 ft 446 kts 294°
2026-02-20 12:29 44.20918 20.19889 37859 ft 446 kts 294°